#timestamp,LO_Frequency,Hit,StdDev 
1556874015.7,286046996.5,N
1556874035.5,286047000.6,N
1556874055.4,286046999.5,N
1556874075.2,286046995.0,Y
1556874095.0,286046998.6,P
1556874095.9,286046998.6,P
1556874115.8,286046998.1,P
1556874135.6,286046999.9,N
1556874155.4,286047002.7,Y
1556874175.3,286047002.3,P
1556874195.1,286047003.9,N
1556874215.9,286047003.4,N
1556874235.7,286047001.3,N
1556874255.5,286047002.3,N
1556874275.4,286046999.8,N
1556874295.2,286047000.2,N
1556874315.0,286047002.8,N
1556874315.9,286047002.8,N
1556874335.8,286047001.8,N
1556874355.6,286047001.5,N
1556874375.5,286047004.1,N
1556874395.3,286047003.9,N
1556874415.8,286047003.5,N
1556874435.6,286047002.9,N
1556874455.4,286047005.6,Y
1556874475.3,286047000.4,P
1556874495.1,286047001.0,N
1556874515.9,286047000.1,N
1556874535.7,286047001.5,N
1556874555.5,286047002.2,N
1556874575.4,286047002.4,N
1556874595.2,286047004.0,Y
1556874615.0,286047002.2,P
1556874615.9,286047002.2,P
1556874635.8,286047002.7,P
1556874655.6,286047001.5,Y
1556874675.5,286046998.7,P
1556874695.3,286046997.9,N
1556874715.1,286046997.3,N
1556874735.9,286046994.9,N
1556874755.7,286046997.1,N
1556874775.5,286046996.9,N
1556874795.4,286046997.6,N
1556874815.2,286046994.2,Y
1556874835.1,286046997.6,P
1556874836.0,286046997.6,P
1556874855.8,286046999.2,P
1556874875.6,286046999.6,N
1556874895.5,286046996.9,Y
1556874915.3,286047000.6,P
1556874935.2,286047001.1,N
1556874955.9,286046998.4,N
1556874975.7,286046998.2,N
1556874995.6,286047001.0,N
1556875015.4,286047000.4,N
1556875035.2,286047002.6,N
1556875055.1,286047001.7,N
1556875056.0,286047001.7,N
1556875075.8,286047004.0,N
1556875095.7,286047002.6,N
1556875115.5,286047000.1,N
1556875135.3,286047002.0,N
1556875155.2,286047002.4,N
1556875175.0,286047002.4,N
1556875175.9,286047002.4,N
1556875195.7,286047000.4,N
1556875215.6,286046999.9,N
1556875235.4,286047002.4,N
1556875255.3,286047001.9,N
1556875275.1,286047002.8,N
1556875276.0,286047002.8,N
1556875295.8,286047000.1,N
1556875315.7,286047000.5,N
1556875335.5,286046999.8,N
1556875355.3,286047000.7,N
1556875375.2,286046999.1,N
1556875395.0,286047000.4,N
1556875395.9,286047000.4,N
1556875415.8,286047001.2,N
1556875435.6,286046998.6,N
1556875455.4,286046999.1,N
1556875475.3,286046999.1,N
1556875495.1,286046999.5,N
1556875515.8,286046998.4,N
1556875535.7,286046999.0,N
1556875555.5,286046996.5,N
1556875575.4,286046999.4,N
1556875595.2,286046999.1,N
1556875615.0,286046999.1,N
1556875615.9,286046999.1,N
1556875635.8,286046996.6,N
1556875655.6,286046996.6,N
1556875675.4,286046997.1,N
1556875695.3,286046997.4,N
1556875745.2,286046996.5,E
1556875755.1,286047001.2,N
1556875756.0,286047001.2,P
1556875775.8,286047000.2,P
1556875795.7,286047002.3,Y
1556875815.5,286046999.7,P
1556875835.3,286047002.7,P
1556875855.2,286047002.7,N
1556875875.0,286046999.7,N
1556875875.9,286046999.7,N
1556875895.8,286047002.8,N
1556875915.6,286047002.8,N
1556875935.4,286047000.0,N
1556875955.3,286047000.4,N
1556875975.1,286047000.5,N
1556875995.9,286047000.4,N
1556876015.7,286047000.8,N
1556876035.5,286046998.7,N
1556876055.4,286047000.3,N
1556876075.2,286047001.1,N
1556876095.0,286046998.5,N
1556876095.9,286046998.5,N
1556876115.8,286047000.4,N
1556876135.7,286046998.5,N
1556876155.5,286047000.9,N
1556876175.3,286047000.5,N
1556876195.2,286046999.9,N
1556876215.0,286046998.9,N
1556876215.9,286046998.9,N
1556876235.8,286046999.3,N
1556876255.6,286046997.3,N
1556876275.4,286046998.5,N
1556876295.3,286046999.5,N
1556876315.1,286046999.5,N
1556876335.8,286046997.0,N
1556876355.7,286046997.0,N
1556876375.5,286046996.6,N
1556876395.4,286046996.6,N
1556876415.2,286046998.8,N
1556876435.0,286047000.9,N
1556876435.9,286047000.9,N
1556876455.8,286047002.7,N
1556876475.6,286047000.3,N
1556876495.5,286046998.5,N
1556876515.3,286046998.4,N
1556876535.1,286046998.7,N
1556876555.0,286046997.2,N
1556876555.9,286046997.2,N
1556876575.8,286046995.3,Y
1556876595.6,286046999.6,P
1556876615.5,286046998.5,P
1556876635.3,286046998.5,P
1556876655.1,286047000.7,N
1556876675.9,286047000.4,N
1556876695.7,286047000.3,N
1556876715.5,286047000.9,N
1556876735.4,286046999.1,N
1556876755.2,286046996.8,Y
1556876775.1,286046999.5,P
1556876776.0,286046999.5,P
1556876795.8,286046999.1,P
1556876815.6,286046998.7,Y
1556876835.5,286047000.6,P
1556876855.3,286046998.2,P
1556876875.1,286046998.9,N
1556876895.9,286046999.3,N
1556876915.7,286046996.8,Y
1556876935.6,286046998.5,P
1556876955.4,286047001.1,N
1556876975.2,286046998.7,N
1556876995.1,286047000.6,N
1556876996.0,286047000.6,N
1556877015.8,286047000.2,N
1556877035.7,286047002.4,N
1556877055.5,286046999.9,N
1556877075.3,286047000.8,N
1556877095.2,286047000.0,N
1556877115.0,286047001.7,N
1556877115.9,286047001.7,N
1556877135.7,286047004.2,Y
1556877155.6,286047003.3,P
1556877175.4,286047004.7,P
1556877195.3,286047004.9,N
1556877215.1,286047004.6,N
1556877235.8,286047003.6,N
1556877255.7,286047002.1,N
1556877275.5,286047002.4,N
1556877295.3,286047001.8,N
1556877315.2,286047002.6,N
1556877335.0,286047002.2,N
1556877335.9,286047002.2,N
1556877355.8,286047002.0,N
1556877375.6,286047000.1,N
1556877395.4,286047000.6,N
1556877415.3,286047000.5,N
1556877435.1,286046999.7,N
1556877455.9,286047002.3,N
1556877475.7,286047001.9,N
1556877495.5,286047003.7,N
1556877515.4,286047001.5,N
1556877535.2,286047004.4,N
1556877555.0,286047003.4,N
1556877555.9,286047003.4,N
1556877575.8,286047001.5,N
1556877595.6,286047004.3,N
